Time,TemperatureF,DewpointF,PressureIn,WindDirection,WindDirectionDegrees,WindSpeedMPH,WindSpeedGustMPH,Humidity,HourlyPrecipIn,Conditions,Clouds,dailyrainin,SoftwareType,DateUTC
2013-05-01 00:02:00,45.9,35.9,30.18,NNE,23,0.7,0.7,68,0.00,,,0.00,WUHU216HW,2013-04-30 23:02:00,
2013-05-01 00:07:00,45.9,35.9,30.18,NNE,23,0.0,0.7,68,0.00,,,0.00,WUHU216HW,2013-04-30 23:07:00,
2013-05-01 00:12:00,45.9,35.9,30.18,NNE,23,0.4,0.7,68,0.00,,,0.00,WUHU216HW,2013-04-30 23:12:00,
2013-05-01 00:17:00,45.9,35.9,30.18,NNE,23,0.0,0.4,68,0.00,,,0.00,WUHU216HW,2013-04-30 23:17:00,
2013-05-01 00:22:00,45.7,35.7,30.18,NNE,23,0.0,0.4,68,0.00,,,0.00,WUHU216HW,2013-04-30 23:22:00,
2013-05-01 00:27:00,45.7,35.7,30.18,NW,315,0.0,0.0,68,0.00,,,0.00,WUHU216HW,2013-04-30 23:27:00,
2013-05-01 00:32:00,45.7,35.7,30.18,WNW,293,0.7,0.7,68,0.00,,,0.00,WUHU216HW,2013-04-30 23:32:00,
2013-05-01 00:37:00,45.7,36.2,30.18,WNW,293,0.4,0.7,69,0.00,,,0.00,WUHU216HW,2013-04-30 23:37:00,
2013-05-01 00:42:00,45.7,36.2,30.18,SSW,203,0.9,0.9,69,0.00,,,0.00,WUHU216HW,2013-04-30 23:42:00,
2013-05-01 00:47:00,45.7,36.2,30.17,West,270,0.0,0.9,69,0.00,,,0.00,WUHU216HW,2013-04-30 23:47:00,
2013-05-01 00:52:00,45.7,36.2,30.18,WNW,293,0.0,0.9,69,0.00,,,0.00,WUHU216HW,2013-04-30 23:52:00,
2013-05-01 00:57:00,45.7,36.2,30.17,WNW,293,0.2,0.2,69,0.00,,,0.00,WUHU216HW,2013-04-30 23:57:00,
2013-05-01 01:02:00,45.7,36.2,30.17,NNE,23,0.0,0.2,69,0.00,,,0.00,WUHU216HW,2013-05-01 00:02:00,
2013-05-01 01:07:00,45.9,36.4,30.17,ENE,68,0.2,0.2,69,0.00,,,0.00,WUHU216HW,2013-05-01 00:07:00,
2013-05-01 01:12:00,45.9,36.7,30.17,ENE,68,0.4,0.4,70,0.00,,,0.00,WUHU216HW,2013-05-01 00:12:00,
2013-05-01 01:17:00,45.9,36.4,30.17,ENE,68,0.0,0.4,69,0.00,,,0.00,WUHU216HW,2013-05-01 00:17:00,
2013-05-01 01:22:00,45.7,36.5,30.17,NE,45,0.2,0.4,70,0.00,,,0.00,WUHU216HW,2013-05-01 00:22:00,
2013-05-01 01:27:00,45.7,36.5,30.16,NE,45,0.2,0.2,70,0.00,,,0.00,WUHU216HW,2013-05-01 00:27:00,
2013-05-01 01:32:00,45.7,36.5,30.16,NE,45,0.4,0.4,70,0.00,,,0.00,WUHU216HW,2013-05-01 00:32:00,
2013-05-01 01:37:00,45.5,36.7,30.16,NNE,23,0.7,0.7,71,0.00,,,0.00,WUHU216HW,2013-05-01 00:37:00,
2013-05-01 01:42:00,45.4,36.6,30.16,NNE,23,0.4,0.7,71,0.00,,,0.00,WUHU216HW,2013-05-01 00:42:00,
2013-05-01 01:47:00,45.4,36.9,30.16,North,0,0.0,0.7,72,0.00,,,0.00,WUHU216HW,2013-05-01 00:47:00,
2013-05-01 01:52:00,45.2,36.7,30.16,North,0,0.4,0.4,72,0.00,,,0.00,WUHU216HW,2013-05-01 00:52:00,
2013-05-01 01:57:00,45.0,36.8,30.16,NW,315,1.1,1.1,73,0.00,,,0.00,WUHU216HW,2013-05-01 00:57:00,
2013-05-01 02:02:00,44.8,37.0,30.16,South,180,0.4,1.1,74,0.00,,,0.00,WUHU216HW,2013-05-01 01:02:00,
2013-05-01 02:07:00,45.0,37.2,30.15,SSE,158,0.9,1.1,74,0.00,,,0.00,WUHU216HW,2013-05-01 01:07:00,
2013-05-01 02:12:00,45.0,37.5,30.15,South,180,0.4,0.9,75,0.00,,,0.00,WUHU216HW,2013-05-01 01:12:00,
2013-05-01 02:17:00,45.0,37.2,30.15,South,180,0.7,0.9,74,0.00,,,0.00,WUHU216HW,2013-05-01 01:17:00,
2013-05-01 02:22:00,45.0,37.5,30.15,SSE,158,0.0,0.9,75,0.00,,,0.00,WUHU216HW,2013-05-01 01:22:00,
2013-05-01 02:27:00,45.0,37.9,30.15,SSE,158,0.4,0.9,76,0.00,,,0.00,WUHU216HW,2013-05-01 01:27:00,
2013-05-01 02:32:00,44.8,37.4,30.14,South,180,0.2,0.4,75,0.00,,,0.00,WUHU216HW,2013-05-01 01:32:00,
2013-05-01 02:37:00,44.8,37.4,30.14,NNW,338,0.4,0.4,75,0.00,,,0.00,WUHU216HW,2013-05-01 01:37:00,
2013-05-01 02:42:00,44.6,37.5,30.13,SSE,158,0.4,0.9,76,0.00,,,0.00,WUHU216HW,2013-05-01 01:42:00,
2013-05-01 02:47:00,44.5,37.7,30.13,South,180,0.4,0.9,77,0.00,,,0.00,WUHU216HW,2013-05-01 01:47:00,
2013-05-01 02:52:00,44.5,37.7,30.13,SSW,203,0.7,0.7,77,0.00,,,0.00,WUHU216HW,2013-05-01 01:52:00,
2013-05-01 02:57:00,44.3,37.5,30.13,North,0,0.4,0.7,77,0.00,,,0.00,WUHU216HW,2013-05-01 01:57:00,
2013-05-01 03:02:00,44.3,37.2,30.13,South,180,0.4,0.7,76,0.00,,,0.00,WUHU216HW,2013-05-01 02:02:00,
2013-05-01 03:07:00,44.1,37.0,30.13,NNW,338,1.6,1.6,76,0.00,,,0.00,WUHU216HW,2013-05-01 02:07:00,
2013-05-01 03:12:00,43.9,37.2,30.12,NNW,338,0.7,1.8,77,0.00,,,0.00,WUHU216HW,2013-05-01 02:12:00,
2013-05-01 03:17:00,43.9,37.5,30.12,NE,45,0.7,1.8,78,0.00,,,0.00,WUHU216HW,2013-05-01 02:17:00,
2013-05-01 03:22:00,43.9,37.5,30.12,NNE,23,0.9,0.9,78,0.00,,,0.00,WUHU216HW,2013-05-01 02:22:00,
2013-05-01 03:27:00,43.9,37.2,30.12,East,90,0.4,0.9,77,0.00,,,0.00,WUHU216HW,2013-05-01 02:27:00,
2013-05-01 03:32:00,43.9,37.2,30.12,NNW,338,0.2,0.9,77,0.00,,,0.00,WUHU216HW,2013-05-01 02:32:00,
2013-05-01 03:38:00,43.9,37.2,30.12,WNW,293,0.4,0.4,77,0.00,,,0.00,WUHU216HW,2013-05-01 02:38:00,
2013-05-01 03:43:00,43.7,37.4,30.12,SSE,158,0.7,0.7,78,0.00,,,0.00,WUHU216HW,2013-05-01 02:43:00,
2013-05-01 03:48:00,43.7,37.0,30.12,SE,135,0.0,0.7,77,0.00,,,0.00,WUHU216HW,2013-05-01 02:48:00,
2013-05-01 03:53:00,43.7,37.0,30.12,North,0,0.7,0.7,77,0.00,,,0.00,WUHU216HW,2013-05-01 02:53:00,
2013-05-01 03:58:00,43.6,36.8,30.12,North,0,0.7,0.7,77,0.00,,,0.00,WUHU216HW,2013-05-01 02:58:00,
2013-05-01 04:03:00,43.6,37.2,30.11,North,0,0.9,1.1,78,0.00,,,0.00,WUHU216HW,2013-05-01 03:03:00,
2013-05-01 04:08:00,43.6,37.2,30.11,East,90,0.9,1.1,78,0.00,,,0.00,WUHU216HW,2013-05-01 03:08:00,
2013-05-01 04:13:00,43.6,37.2,30.11,SSE,158,0.7,0.9,78,0.00,,,0.00,WUHU216HW,2013-05-01 03:13:00,
2013-05-01 04:18:00,43.6,37.4,30.11,NNW,338,0.4,2.5,79,0.00,,,0.00,WUHU216HW,2013-05-01 03:18:00,
2013-05-01 04:23:00,43.6,37.8,30.11,ENE,68,1.3,2.5,80,0.00,,,0.00,WUHU216HW,2013-05-01 03:23:00,
2013-05-01 04:28:00,43.6,37.4,30.10,NW,315,0.9,1.3,79,0.00,,,0.00,WUHU216HW,2013-05-01 03:28:00,
2013-05-01 04:33:00,43.6,37.8,30.11,SE,135,0.2,1.3,80,0.00,,,0.00,WUHU216HW,2013-05-01 03:33:00,
2013-05-01 04:38:00,43.6,37.8,30.10,WNW,293,1.3,1.3,80,0.00,,,0.00,WUHU216HW,2013-05-01 03:38:00,
2013-05-01 04:43:00,43.6,38.1,30.10,SE,135,0.0,1.3,81,0.00,,,0.00,WUHU216HW,2013-05-01 03:43:00,
2013-05-01 04:48:00,43.7,38.0,30.10,NNE,23,1.1,1.3,80,0.00,,,0.00,WUHU216HW,2013-05-01 03:48:00,
2013-05-01 04:53:00,43.7,38.0,30.10,NW,315,2.2,2.2,80,0.00,,,0.00,WUHU216HW,2013-05-01 03:53:00,
2013-05-01 04:58:00,43.9,38.4,30.10,NNW,338,1.6,2.2,81,0.00,,,0.00,WUHU216HW,2013-05-01 03:58:00,
2013-05-01 05:03:00,43.9,38.4,30.10,NNE,23,0.7,2.2,81,0.00,,,0.00,WUHU216HW,2013-05-01 04:03:00,
2013-05-01 05:08:00,44.1,38.6,30.09,NNE,23,0.9,1.6,81,0.00,,,0.00,WUHU216HW,2013-05-01 04:08:00,
2013-05-01 05:13:00,44.1,38.6,30.09,NNW,338,0.4,0.9,81,0.00,,,0.00,WUHU216HW,2013-05-01 04:13:00,
2013-05-01 05:18:00,44.1,38.6,30.09,NW,315,3.4,3.4,81,0.00,,,0.00,WUHU216HW,2013-05-01 04:18:00,
2013-05-01 05:23:00,44.3,38.8,30.09,NW,315,1.8,3.4,81,0.00,,,0.00,WUHU216HW,2013-05-01 04:23:00,
2013-05-01 05:28:00,44.1,38.6,30.09,NE,45,0.4,3.4,81,0.00,,,0.00,WUHU216HW,2013-05-01 04:28:00,
2013-05-01 05:33:00,44.1,38.6,30.09,SE,135,0.9,1.8,81,0.00,,,0.00,WUHU216HW,2013-05-01 04:33:00,
2013-05-01 05:38:00,44.1,38.6,30.09,NNE,23,0.4,2.9,81,0.00,,,0.00,WUHU216HW,2013-05-01 04:38:00,
2013-05-01 05:43:00,44.1,38.6,30.09,North,0,1.1,2.9,81,0.00,,,0.00,WUHU216HW,2013-05-01 04:43:00,
2013-05-01 05:48:00,44.3,38.8,30.09,NW,315,0.4,1.1,81,0.00,,,0.00,WUHU216HW,2013-05-01 04:48:00,
2013-05-01 05:53:00,44.3,38.8,30.09,ENE,68,0.7,1.1,81,0.00,,,0.00,WUHU216HW,2013-05-01 04:53:00,
2013-05-01 05:58:00,44.3,38.8,30.09,NE,45,1.1,1.1,81,0.00,,,0.00,WUHU216HW,2013-05-01 04:58:00,
2013-05-01 06:03:00,44.3,38.8,30.08,NNE,23,1.1,1.1,81,0.00,,,0.00,WUHU216HW,2013-05-01 05:03:00,
2013-05-01 06:08:00,44.5,39.0,30.08,SSE,158,0.2,1.1,81,0.00,,,0.00,WUHU216HW,2013-05-01 05:08:00,
2013-05-01 06:13:00,44.5,39.0,30.08,NE,45,1.1,1.1,81,0.00,,,0.00,WUHU216HW,2013-05-01 05:13:00,
2013-05-01 06:18:00,44.6,39.2,30.08,SE,135,0.7,1.1,81,0.00,,,0.00,WUHU216HW,2013-05-01 05:18:00,
2013-05-01 06:23:00,44.6,39.2,30.08,SE,135,0.0,1.1,81,0.00,,,0.00,WUHU216HW,2013-05-01 05:23:00,
2013-05-01 06:28:00,44.8,39.3,30.08,WNW,293,0.2,0.9,81,0.00,,,0.00,WUHU216HW,2013-05-01 05:28:00,
2013-05-01 06:33:00,44.8,39.3,30.08,SE,135,0.7,0.9,81,0.00,,,0.00,WUHU216HW,2013-05-01 05:33:00,
2013-05-01 06:38:00,44.8,39.3,30.08,SE,135,0.7,0.7,81,0.00,,,0.00,WUHU216HW,2013-05-01 05:38:00,
2013-05-01 06:43:00,44.8,39.3,30.08,SE,135,0.7,2.0,81,0.00,,,0.00,WUHU216HW,2013-05-01 05:43:00,
2013-05-01 06:48:00,44.8,39.3,30.08,North,0,1.3,2.0,81,0.00,,,0.00,WUHU216HW,2013-05-01 05:48:00,
2013-05-01 06:53:00,45.0,39.2,30.08,NNW,338,1.1,1.3,80,0.00,,,0.00,WUHU216HW,2013-05-01 05:53:00,
2013-05-01 06:58:00,45.0,39.5,30.08,East,90,0.4,1.3,81,0.00,,,0.00,WUHU216HW,2013-05-01 05:58:00,
2013-05-01 07:03:00,44.8,39.3,30.08,North,0,1.1,1.1,81,0.00,,,0.00,WUHU216HW,2013-05-01 06:03:00,
2013-05-01 07:08:00,44.8,39.3,30.08,NW,315,1.8,1.8,81,0.00,,,0.00,WUHU216HW,2013-05-01 06:08:00,
2013-05-01 07:13:00,44.6,39.5,30.08,SSW,203,2.2,2.2,82,0.00,,,0.00,WUHU216HW,2013-05-01 06:13:00,
2013-05-01 07:18:00,44.8,39.7,30.07,SSE,158,0.4,2.2,82,0.00,,,0.00,WUHU216HW,2013-05-01 06:18:00,
2013-05-01 07:23:00,44.8,39.7,30.07,NNE,23,2.0,2.2,82,0.00,,,0.00,WUHU216HW,2013-05-01 06:23:00,
2013-05-01 07:28:00,45.0,39.9,30.07,West,270,1.6,2.0,82,0.00,,,0.00,WUHU216HW,2013-05-01 06:28:00,
2013-05-01 07:33:00,45.0,40.1,30.07,North,0,3.4,3.4,83,0.00,,,0.00,WUHU216HW,2013-05-01 06:33:00,
2013-05-01 07:38:00,45.0,40.1,30.07,NNW,338,1.1,3.4,83,0.00,,,0.00,WUHU216HW,2013-05-01 06:38:00,
2013-05-01 07:43:00,45.0,40.1,30.07,NNE,23,1.8,3.4,83,0.00,,,0.00,WUHU216HW,2013-05-01 06:43:00,
2013-05-01 07:48:00,45.0,40.1,30.07,East,90,1.1,1.8,83,0.00,,,0.00,WUHU216HW,2013-05-01 06:48:00,
2013-05-01 07:53:00,45.0,40.5,30.07,East,90,0.4,1.8,84,0.00,,,0.00,WUHU216HW,2013-05-01 06:53:00,
2013-05-01 07:58:00,45.0,40.5,30.08,SSE,158,0.7,1.1,84,0.00,,,0.00,WUHU216HW,2013-05-01 06:58:00,
2013-05-01 08:03:00,45.0,40.5,30.08,NNW,338,1.8,1.8,84,0.00,,,0.00,WUHU216HW,2013-05-01 07:03:00,
2013-05-01 08:08:00,44.8,40.6,30.08,NNE,23,1.8,1.8,85,0.00,,,0.00,WUHU216HW,2013-05-01 07:08:00,
2013-05-01 08:13:00,44.8,40.6,30.08,ENE,68,1.1,1.8,85,0.01,,,0.02,WUHU216HW,2013-05-01 07:13:00,
2013-05-01 08:18:00,44.8,40.6,30.08,NNE,23,2.5,2.5,85,0.01,,,0.02,WUHU216HW,2013-05-01 07:18:00,
2013-05-01 08:23:00,44.6,40.4,30.08,NNW,338,1.6,2.5,85,0.01,,,0.02,WUHU216HW,2013-05-01 07:23:00,
2013-05-01 08:28:00,44.6,40.4,30.08,North,0,1.3,2.5,85,0.01,,,0.02,WUHU216HW,2013-05-01 07:28:00,
2013-05-01 08:33:00,44.8,40.6,30.08,South,180,0.7,1.6,85,0.01,,,0.02,WUHU216HW,2013-05-01 07:33:00,
2013-05-01 08:38:00,44.8,41.2,30.08,ENE,68,1.6,1.6,87,0.01,,,0.02,WUHU216HW,2013-05-01 07:38:00,
2013-05-01 08:43:00,45.0,41.4,30.08,NNE,23,1.8,1.8,87,0.01,,,0.02,WUHU216HW,2013-05-01 07:43:00,
2013-05-01 08:48:00,45.0,41.4,30.08,East,90,1.3,1.8,87,0.01,,,0.02,WUHU216HW,2013-05-01 07:48:00,
2013-05-01 08:53:00,45.0,41.4,30.08,SE,135,2.5,2.5,87,0.01,,,0.02,WUHU216HW,2013-05-01 07:53:00,
2013-05-01 08:58:00,45.2,41.9,30.08,East,90,2.2,2.5,88,0.01,,,0.02,WUHU216HW,2013-05-01 07:58:00,
2013-05-01 09:03:00,45.5,42.0,30.08,East,90,1.1,2.5,87,0.01,,,0.02,WUHU216HW,2013-05-01 08:03:00,
2013-05-01 09:08:00,45.4,41.8,30.08,ENE,68,1.1,1.8,87,0.00,,,0.02,WUHU216HW,2013-05-01 08:08:00,
2013-05-01 09:13:00,45.4,41.8,30.08,NNW,338,2.2,2.2,87,0.00,,,0.02,WUHU216HW,2013-05-01 08:13:00,
2013-05-01 09:18:00,45.4,41.8,30.08,NNW,338,2.0,2.5,87,0.00,,,0.02,WUHU216HW,2013-05-01 08:18:00,
2013-05-01 09:23:00,45.4,41.8,30.08,NNE,23,1.8,2.5,87,0.00,,,0.02,WUHU216HW,2013-05-01 08:23:00,
2013-05-01 09:28:00,45.5,42.2,30.08,SSE,158,1.1,2.0,88,0.00,,,0.02,WUHU216HW,2013-05-01 08:28:00,
2013-05-01 09:33:00,45.7,42.4,30.08,North,0,2.5,2.5,88,0.00,,,0.02,WUHU216HW,2013-05-01 08:33:00,
2013-05-01 09:38:00,45.9,42.6,30.08,SE,135,1.8,2.5,88,0.01,,,0.03,WUHU216HW,2013-05-01 08:38:00,
2013-05-01 09:43:00,46.1,42.8,30.08,South,180,2.0,2.0,88,0.01,,,0.03,WUHU216HW,2013-05-01 08:43:00,
2013-05-01 09:48:00,46.1,42.8,30.09,SSW,203,3.1,3.1,88,0.01,,,0.03,WUHU216HW,2013-05-01 08:48:00,
2013-05-01 09:53:00,47.2,43.8,30.09,SSE,158,1.3,3.1,88,0.01,,,0.03,WUHU216HW,2013-05-01 08:53:00,
2013-05-01 09:58:00,47.9,44.2,30.09,West,270,2.2,3.1,87,0.01,,,0.03,WUHU216HW,2013-05-01 08:58:00,
2013-05-01 10:03:00,47.9,43.9,30.09,NNW,338,1.8,2.2,86,0.01,,,0.03,WUHU216HW,2013-05-01 09:03:00,
2013-05-01 10:08:00,47.9,43.6,30.09,East,90,1.8,2.2,85,0.01,,,0.03,WUHU216HW,2013-05-01 09:08:00,
2013-05-01 10:13:00,48.2,43.6,30.09,WNW,293,2.9,2.9,84,0.01,,,0.03,WUHU216HW,2013-05-01 09:13:00,
2013-05-01 10:18:00,47.9,42.9,30.09,North,0,1.8,2.9,83,0.01,,,0.03,WUHU216HW,2013-05-01 09:18:00,
2013-05-01 10:23:00,47.9,42.9,30.09,SSE,158,1.8,2.9,83,0.01,,,0.03,WUHU216HW,2013-05-01 09:23:00,
2013-05-01 10:28:00,49.1,44.5,30.09,NW,315,2.7,2.7,84,0.01,,,0.03,WUHU216HW,2013-05-01 09:28:00,
2013-05-01 10:33:00,49.1,43.8,30.09,NW,315,3.1,3.1,82,0.00,,,0.03,WUHU216HW,2013-05-01 09:33:00,
2013-05-01 10:38:00,48.8,43.5,30.10,ESE,113,1.8,3.1,82,0.00,,,0.03,WUHU216HW,2013-05-01 09:38:00,
2013-05-01 10:43:00,48.4,43.1,30.10,NNE,23,1.1,3.1,82,0.00,,,0.03,WUHU216HW,2013-05-01 09:43:00,
2013-05-01 10:48:00,48.2,42.7,30.10,SE,135,0.7,1.8,81,0.00,,,0.03,WUHU216HW,2013-05-01 09:48:00,
2013-05-01 10:53:00,48.2,42.3,30.10,NW,315,2.7,2.7,80,0.00,,,0.03,WUHU216HW,2013-05-01 09:53:00,
2013-05-01 10:58:00,48.4,42.9,30.10,South,180,1.1,2.7,81,0.00,,,0.03,WUHU216HW,2013-05-01 09:58:00,
2013-05-01 11:03:00,48.8,42.8,30.09,WNW,293,2.5,2.7,80,0.00,,,0.03,WUHU216HW,2013-05-01 10:03:00,
2013-05-01 11:08:00,49.1,42.5,30.10,North,0,3.4,3.4,78,0.00,,,0.03,WUHU216HW,2013-05-01 10:08:00,
2013-05-01 11:13:00,49.7,42.8,30.10,NW,315,2.0,3.4,77,0.00,,,0.03,WUHU216HW,2013-05-01 10:13:00,
2013-05-01 11:18:00,49.9,42.9,30.10,NNE,23,2.2,3.4,77,0.00,,,0.03,WUHU216HW,2013-05-01 10:18:00,
2013-05-01 11:23:00,50.2,42.9,30.10,SSE,158,1.8,2.2,76,0.00,,,0.03,WUHU216HW,2013-05-01 10:23:00,
2013-05-01 11:28:00,50.8,43.5,30.10,North,0,1.1,2.2,76,0.00,,,0.03,WUHU216HW,2013-05-01 10:28:00,
2013-05-01 11:33:00,51.8,43.5,30.10,NNW,338,4.9,4.9,73,0.00,,,0.03,WUHU216HW,2013-05-01 10:33:00,
2013-05-01 11:38:00,52.2,43.5,30.10,NNW,338,1.6,4.9,72,0.00,,,0.03,WUHU216HW,2013-05-01 10:38:00,
2013-05-01 11:43:00,52.7,44.0,30.11,ENE,68,4.0,4.9,72,0.00,,,0.03,WUHU216HW,2013-05-01 10:43:00,
2013-05-01 11:48:00,53.1,44.3,30.11,WSW,248,4.0,4.0,72,0.00,,,0.03,WUHU216HW,2013-05-01 10:48:00,
2013-05-01 11:53:00,53.8,43.9,30.10,ESE,113,2.9,4.0,69,0.00,,,0.03,WUHU216HW,2013-05-01 10:53:00,
2013-05-01 11:58:00,53.3,43.0,30.11,WNW,293,2.7,3.6,68,0.00,,,0.03,WUHU216HW,2013-05-01 10:58:00,
2013-05-01 12:03:00,53.1,42.9,30.11,North,0,1.1,2.9,68,0.00,,,0.03,WUHU216HW,2013-05-01 11:03:00,
2013-05-01 12:08:00,53.6,42.9,30.11,South,180,1.8,2.7,67,0.00,,,0.03,WUHU216HW,2013-05-01 11:08:00,
2013-05-01 12:13:00,53.3,42.6,30.11,East,90,2.5,2.5,67,0.00,,,0.03,WUHU216HW,2013-05-01 11:13:00,
2013-05-01 12:18:00,53.1,42.4,30.11,NE,45,2.0,2.5,67,0.00,,,0.03,WUHU216HW,2013-05-01 11:18:00,
2013-05-01 12:23:00,53.1,43.2,30.11,WNW,293,3.8,3.8,69,0.00,,,0.03,WUHU216HW,2013-05-01 11:23:00,
2013-05-01 12:28:00,53.1,42.4,30.12,WNW,293,4.9,4.9,67,0.00,,,0.03,WUHU216HW,2013-05-01 11:28:00,
2013-05-01 12:33:00,51.8,41.7,30.12,WNW,293,2.7,4.9,68,0.00,,,0.03,WUHU216HW,2013-05-01 11:33:00,
2013-05-01 12:38:00,50.9,40.8,30.12,NW,315,6.9,6.9,68,0.00,,,0.03,WUHU216HW,2013-05-01 11:38:00,
2013-05-01 12:43:00,50.4,42.0,30.12,WNW,293,4.9,6.9,73,0.00,,,0.03,WUHU216HW,2013-05-01 11:43:00,
2013-05-01 12:48:00,50.4,42.0,30.12,NW,315,4.0,6.9,73,0.00,,,0.03,WUHU216HW,2013-05-01 11:48:00,
2013-05-01 12:53:00,50.4,41.8,30.12,NW,315,4.0,4.9,72,0.00,,,0.03,WUHU216HW,2013-05-01 11:53:00,
2013-05-01 12:58:00,51.3,41.5,30.12,WNW,293,4.7,6.9,69,0.00,,,0.03,WUHU216HW,2013-05-01 11:58:00,
2013-05-01 13:03:00,52.2,41.6,30.12,NW,315,7.4,7.4,67,0.00,,,0.03,WUHU216HW,2013-05-01 12:03:00,
2013-05-01 13:08:00,52.2,40.8,30.13,NW,315,2.2,7.4,65,0.00,,,0.03,WUHU216HW,2013-05-01 12:08:00,
2013-05-01 13:13:00,52.9,41.4,30.12,NW,315,2.5,7.4,65,0.00,,,0.03,WUHU216HW,2013-05-01 12:13:00,
2013-05-01 13:18:00,53.6,41.8,30.12,NNW,338,1.1,2.5,64,0.00,,,0.03,WUHU216HW,2013-05-01 12:18:00,
2013-05-01 13:23:00,54.0,40.5,30.13,WNW,293,4.7,5.4,60,0.00,,,0.03,WUHU216HW,2013-05-01 12:23:00,
2013-05-01 13:28:00,53.5,38.5,30.13,NW,315,3.4,5.4,57,0.00,,,0.03,WUHU216HW,2013-05-01 12:28:00,
2013-05-01 13:33:00,52.9,39.0,30.13,NNW,338,2.7,4.7,59,0.00,,,0.03,WUHU216HW,2013-05-01 12:33:00,
2013-05-01 13:38:00,52.9,38.1,30.13,NW,315,2.5,3.4,57,0.00,,,0.03,WUHU216HW,2013-05-01 12:38:00,
2013-05-01 13:43:00,52.6,38.2,30.13,WNW,293,3.4,3.4,58,0.00,,,0.03,WUHU216HW,2013-05-01 12:43:00,
2013-05-01 13:48:00,52.9,38.5,30.13,NNE,23,2.2,3.4,58,0.00,,,0.03,WUHU216HW,2013-05-01 12:48:00,
2013-05-01 13:54:00,53.6,38.3,30.13,NW,315,5.8,5.8,56,0.00,,,0.03,WUHU216HW,2013-05-01 12:54:00,
2013-05-01 13:59:00,54.0,37.2,30.13,WNW,293,3.4,5.8,53,0.00,,,0.03,WUHU216HW,2013-05-01 12:59:00,
2013-05-01 14:04:00,53.6,36.4,30.14,NW,315,2.0,5.8,52,0.00,,,0.03,WUHU216HW,2013-05-01 13:04:00,
2013-05-01 14:09:00,53.5,36.7,30.14,NW,315,4.0,4.0,53,0.00,,,0.03,WUHU216HW,2013-05-01 13:09:00,
2013-05-01 14:14:00,53.5,36.7,30.14,ESE,113,1.6,4.5,53,0.00,,,0.03,WUHU216HW,2013-05-01 13:14:00,
2013-05-01 14:19:00,53.8,36.1,30.14,WNW,293,5.4,5.4,51,0.00,,,0.03,WUHU216HW,2013-05-01 13:19:00,
2013-05-01 14:24:00,53.3,36.1,30.14,NNE,23,3.8,5.4,52,0.00,,,0.03,WUHU216HW,2013-05-01 13:24:00,
2013-05-01 14:29:00,52.7,36.5,30.15,NNW,338,2.2,5.4,54,0.00,,,0.03,WUHU216HW,2013-05-01 13:29:00,
2013-05-01 14:34:00,52.0,35.4,30.15,WNW,293,3.4,5.8,53,0.00,,,0.03,WUHU216HW,2013-05-01 13:34:00,
2013-05-01 14:39:00,52.0,36.3,30.15,SSW,203,3.8,5.8,55,0.00,,,0.03,WUHU216HW,2013-05-01 13:39:00,
2013-05-01 14:44:00,52.6,36.8,30.15,NNW,338,4.3,4.3,55,0.00,,,0.03,WUHU216HW,2013-05-01 13:44:00,
2013-05-01 14:49:00,52.0,37.2,30.15,NW,315,4.3,4.3,57,0.00,,,0.03,WUHU216HW,2013-05-01 13:49:00,
2013-05-01 14:54:00,51.8,37.4,30.15,NNW,338,1.8,4.3,58,0.00,,,0.03,WUHU216HW,2013-05-01 13:54:00,
2013-05-01 14:59:00,52.4,38.4,30.15,NW,315,7.2,7.2,59,0.00,,,0.03,WUHU216HW,2013-05-01 13:59:00,
2013-05-01 15:04:00,52.6,38.2,30.16,NNW,338,2.0,7.2,58,0.00,,,0.03,WUHU216HW,2013-05-01 14:04:00,
2013-05-01 15:09:00,53.1,37.7,30.16,WNW,293,3.6,7.2,56,0.00,,,0.03,WUHU216HW,2013-05-01 14:09:00,
2013-05-01 15:14:00,53.3,37.9,30.16,NNW,338,1.6,3.6,56,0.00,,,0.03,WUHU216HW,2013-05-01 14:14:00,
2013-05-01 15:19:00,53.3,37.0,30.16,NW,315,4.7,4.7,54,0.00,,,0.03,WUHU216HW,2013-05-01 14:19:00,
2013-05-01 15:24:00,53.6,37.8,30.16,NW,315,3.1,4.7,55,0.00,,,0.03,WUHU216HW,2013-05-01 14:24:00,
2013-05-01 15:29:00,53.6,37.4,30.16,NNW,338,2.9,4.7,54,0.00,,,0.03,WUHU216HW,2013-05-01 14:29:00,
2013-05-01 15:34:00,53.3,36.6,30.16,WNW,293,3.4,3.4,53,0.00,,,0.03,WUHU216HW,2013-05-01 14:34:00,
2013-05-01 15:39:00,53.6,36.9,30.16,SSE,158,2.5,3.4,53,0.00,,,0.03,WUHU216HW,2013-05-01 14:39:00,
2013-05-01 15:44:00,53.6,36.4,30.16,WNW,293,2.0,4.7,52,0.00,,,0.03,WUHU216HW,2013-05-01 14:44:00,
2013-05-01 15:49:00,54.2,36.9,30.16,SSW,203,1.3,4.7,52,0.00,,,0.03,WUHU216HW,2013-05-01 14:49:00,
2013-05-01 15:54:00,54.4,36.1,30.17,WSW,248,1.6,2.0,50,0.00,,,0.03,WUHU216HW,2013-05-01 14:54:00,
2013-05-01 15:59:00,54.4,36.5,30.17,North,0,1.8,1.8,51,0.00,,,0.03,WUHU216HW,2013-05-01 14:59:00,
2013-05-01 16:04:00,55.3,36.9,30.17,NNE,23,2.5,2.5,50,0.00,,,0.03,WUHU216HW,2013-05-01 15:04:00,
2013-05-01 16:09:00,55.6,36.7,30.17,SSW,203,3.8,3.8,49,0.00,,,0.03,WUHU216HW,2013-05-01 15:09:00,
2013-05-01 16:14:00,55.1,36.7,30.17,NW,315,2.2,3.8,50,0.00,,,0.03,WUHU216HW,2013-05-01 15:14:00,
2013-05-01 16:19:00,53.6,35.5,30.17,WNW,293,1.3,3.8,50,0.00,,,0.03,WUHU216HW,2013-05-01 15:19:00,
2013-05-01 16:24:00,53.1,35.5,30.17,WNW,293,3.1,3.1,51,0.00,,,0.03,WUHU216HW,2013-05-01 15:24:00,
2013-05-01 16:29:00,52.9,34.8,30.17,NW,315,3.4,3.4,50,0.00,,,0.03,WUHU216HW,2013-05-01 15:29:00,
2013-05-01 16:34:00,52.4,34.7,30.17,WNW,293,3.4,3.4,51,0.00,,,0.03,WUHU216HW,2013-05-01 15:34:00,
2013-05-01 16:39:00,53.3,36.1,30.17,NNW,338,3.6,3.6,52,0.00,,,0.03,WUHU216HW,2013-05-01 15:39:00,
2013-05-01 16:44:00,53.6,35.9,30.17,WNW,293,6.3,6.3,51,0.00,,,0.03,WUHU216HW,2013-05-01 15:44:00,
2013-05-01 16:49:00,53.3,35.1,30.17,WNW,293,4.5,6.3,50,0.00,,,0.03,WUHU216HW,2013-05-01 15:49:00,
2013-05-01 16:54:00,52.6,35.4,30.18,WNW,293,1.1,6.3,52,0.00,,,0.03,WUHU216HW,2013-05-01 15:54:00,
2013-05-01 16:59:00,53.1,36.4,30.17,NW,315,3.1,4.5,53,0.00,,,0.03,WUHU216HW,2013-05-01 15:59:00,
2013-05-01 17:04:00,53.1,36.4,30.18,WSW,248,1.1,3.4,53,0.00,,,0.03,WUHU216HW,2013-05-01 16:04:00,
2013-05-01 17:09:00,52.9,35.3,30.18,NW,315,4.0,4.0,51,0.00,,,0.03,WUHU216HW,2013-05-01 16:09:00,
2013-05-01 17:14:00,53.1,35.9,30.18,NNW,338,2.5,4.0,52,0.00,,,0.03,WUHU216HW,2013-05-01 16:14:00,
2013-05-01 17:19:00,53.5,36.7,30.18,SSE,158,2.2,4.0,53,0.00,,,0.03,WUHU216HW,2013-05-01 16:19:00,
2013-05-01 17:24:00,53.8,36.5,30.18,South,180,1.3,2.5,52,0.00,,,0.03,WUHU216HW,2013-05-01 16:24:00,
2013-05-01 17:29:00,53.6,35.9,30.18,ESE,113,1.8,2.2,51,0.00,,,0.03,WUHU216HW,2013-05-01 16:29:00,
2013-05-01 17:34:00,52.7,35.6,30.18,NW,315,2.0,5.4,52,0.00,,,0.03,WUHU216HW,2013-05-01 16:34:00,
2013-05-01 17:39:00,52.9,36.2,30.18,WNW,293,3.6,5.4,53,0.00,,,0.03,WUHU216HW,2013-05-01 16:39:00,
2013-05-01 17:44:00,53.3,36.1,30.18,WNW,293,4.5,4.5,52,0.00,,,0.03,WUHU216HW,2013-05-01 16:44:00,
2013-05-01 17:49:00,53.3,36.1,30.18,SE,135,0.9,4.5,52,0.00,,,0.03,WUHU216HW,2013-05-01 16:49:00,
2013-05-01 17:54:00,54.0,36.3,30.19,SSE,158,2.0,4.5,51,0.00,,,0.03,WUHU216HW,2013-05-01 16:54:00,
2013-05-01 17:59:00,54.2,36.5,30.19,South,180,2.5,2.5,51,0.00,,,0.03,WUHU216HW,2013-05-01 16:59:00,
2013-05-01 18:04:00,54.0,36.3,30.19,NNE,23,2.5,2.5,51,0.00,,,0.03,WUHU216HW,2013-05-01 17:04:00,
2013-05-01 18:09:00,54.0,35.8,30.19,NW,315,2.2,2.5,50,0.00,,,0.03,WUHU216HW,2013-05-01 17:09:00,
2013-05-01 18:14:00,53.6,34.9,30.20,SE,135,5.4,5.4,49,0.00,,,0.03,WUHU216HW,2013-05-01 17:14:00,
2013-05-01 18:19:00,53.6,35.5,30.19,WNW,293,2.2,5.4,50,0.00,,,0.03,WUHU216HW,2013-05-01 17:19:00,
2013-05-01 18:24:00,53.6,35.5,30.20,SSE,158,1.8,5.4,50,0.00,,,0.03,WUHU216HW,2013-05-01 17:24:00,
2013-05-01 18:29:00,53.8,35.1,30.20,SE,135,2.0,2.2,49,0.00,,,0.03,WUHU216HW,2013-05-01 17:29:00,
2013-05-01 18:34:00,53.6,35.9,30.20,NNE,23,2.5,2.5,51,0.00,,,0.03,WUHU216HW,2013-05-01 17:34:00,
2013-05-01 18:39:00,53.3,35.7,30.19,WNW,293,2.0,2.5,51,0.00,,,0.03,WUHU216HW,2013-05-01 17:39:00,
2013-05-01 18:44:00,52.9,35.3,30.19,SE,135,1.1,2.5,51,0.00,,,0.03,WUHU216HW,2013-05-01 17:44:00,
2013-05-01 18:49:00,52.2,35.1,30.19,NE,45,0.4,2.0,52,0.00,,,0.03,WUHU216HW,2013-05-01 17:49:00,
2013-05-01 18:54:00,52.0,35.4,30.19,South,180,0.7,1.1,53,0.00,,,0.03,WUHU216HW,2013-05-01 17:54:00,
2013-05-01 18:59:00,52.0,35.4,30.19,SSE,158,2.2,2.2,53,0.00,,,0.03,WUHU216HW,2013-05-01 17:59:00,
2013-05-01 19:04:00,52.0,35.8,30.20,South,180,0.4,2.2,54,0.00,,,0.03,WUHU216HW,2013-05-01 18:04:00,
2013-05-01 19:09:00,51.7,35.5,30.20,SSW,203,0.9,2.2,54,0.00,,,0.03,WUHU216HW,2013-05-01 18:09:00,
2013-05-01 19:14:00,51.7,35.9,30.20,South,180,0.2,0.9,55,0.00,,,0.03,WUHU216HW,2013-05-01 18:14:00,
2013-05-01 19:19:00,51.8,36.1,30.20,SE,135,1.1,1.1,55,0.00,,,0.03,WUHU216HW,2013-05-01 18:19:00,
2013-05-01 19:24:00,51.7,35.9,30.20,SSE,158,0.2,1.6,55,0.00,,,0.03,WUHU216HW,2013-05-01 18:24:00,
2013-05-01 19:29:00,51.5,35.7,30.20,SSE,158,0.9,1.6,55,0.00,,,0.03,WUHU216HW,2013-05-01 18:29:00,
2013-05-01 19:34:00,51.3,35.7,30.20,NW,315,2.5,2.5,55,0.00,,,0.03,WUHU216HW,2013-05-01 18:34:00,
2013-05-01 19:39:00,50.9,35.3,30.20,NNW,338,2.2,2.5,55,0.00,,,0.03,WUHU216HW,2013-05-01 18:39:00,
2013-05-01 19:44:00,50.6,35.4,30.20,WNW,293,0.7,2.5,56,0.00,,,0.03,WUHU216HW,2013-05-01 18:44:00,
2013-05-01 19:49:00,50.0,35.4,30.21,South,180,0.7,2.2,57,0.00,,,0.03,WUHU216HW,2013-05-01 18:49:00,
2013-05-01 19:54:00,50.0,35.4,30.21,SW,225,0.9,0.9,57,0.00,,,0.03,WUHU216HW,2013-05-01 18:54:00,
2013-05-01 19:59:00,49.7,35.0,30.21,South,180,0.0,0.9,57,0.00,,,0.03,WUHU216HW,2013-05-01 18:59:00,
2013-05-01 20:04:00,49.7,35.0,30.21,SW,225,0.7,1.3,57,0.00,,,0.03,WUHU216HW,2013-05-01 19:04:00,
2013-05-01 20:09:00,49.5,35.3,30.21,South,180,1.1,1.3,58,0.00,,,0.03,WUHU216HW,2013-05-01 19:09:00,
2013-05-01 20:14:00,49.3,35.2,30.21,SSE,158,2.0,2.0,58,0.00,,,0.03,WUHU216HW,2013-05-01 19:14:00,
2013-05-01 20:19:00,49.3,34.8,30.21,ENE,68,0.9,2.0,57,0.00,,,0.03,WUHU216HW,2013-05-01 19:19:00,
2013-05-01 20:24:00,48.6,34.0,30.21,SSE,158,0.4,2.0,57,0.00,,,0.03,WUHU216HW,2013-05-01 19:24:00,
2013-05-01 20:29:00,48.6,34.5,30.21,South,180,1.1,1.8,58,0.00,,,0.03,WUHU216HW,2013-05-01 19:29:00,
2013-05-01 20:34:00,48.4,34.3,30.22,SE,135,0.2,1.1,58,0.00,,,0.03,WUHU216HW,2013-05-01 19:34:00,
2013-05-01 20:39:00,47.5,33.9,30.22,WSW,248,0.0,1.1,59,0.00,,,0.03,WUHU216HW,2013-05-01 19:39:00,
2013-05-01 20:44:00,47.0,33.0,30.22,WSW,248,0.4,0.4,58,0.00,,,0.03,WUHU216HW,2013-05-01 19:44:00,
2013-05-01 20:49:00,46.4,32.9,30.22,WSW,248,0.0,0.4,59,0.00,,,0.03,WUHU216HW,2013-05-01 19:49:00,
2013-05-01 20:54:00,46.1,32.9,30.22,WSW,248,0.0,0.4,60,0.00,,,0.03,WUHU216HW,2013-05-01 19:54:00,
2013-05-01 20:59:00,45.4,32.7,30.22,WSW,248,0.0,0.0,61,0.00,,,0.03,WUHU216HW,2013-05-01 19:59:00,
2013-05-01 21:04:00,45.0,32.4,30.22,WSW,248,0.0,0.0,61,0.00,,,0.03,WUHU216HW,2013-05-01 20:04:00,
2013-05-01 21:09:00,44.6,32.4,30.23,WSW,248,0.0,0.0,62,0.00,,,0.03,WUHU216HW,2013-05-01 20:09:00,
2013-05-01 21:14:00,44.3,32.0,30.23,WSW,248,0.4,0.4,62,0.00,,,0.03,WUHU216HW,2013-05-01 20:14:00,
2013-05-01 21:19:00,43.9,32.1,30.23,WSW,248,0.4,0.4,63,0.00,,,0.03,WUHU216HW,2013-05-01 20:19:00,
2013-05-01 21:24:00,43.7,32.0,30.23,WSW,248,0.0,0.4,63,0.00,,,0.03,WUHU216HW,2013-05-01 20:24:00,
2013-05-01 21:29:00,43.6,31.8,30.23,WSW,248,0.0,0.4,63,0.00,,,0.03,WUHU216HW,2013-05-01 20:29:00,
2013-05-01 21:34:00,43.0,31.7,30.23,WSW,248,0.0,0.0,64,0.00,,,0.03,WUHU216HW,2013-05-01 20:34:00,
2013-05-01 21:39:00,43.0,31.7,30.24,WSW,248,0.0,0.0,64,0.00,,,0.03,WUHU216HW,2013-05-01 20:39:00,
2013-05-01 21:44:00,42.8,31.5,30.23,WSW,248,0.0,0.0,64,0.00,,,0.03,WUHU216HW,2013-05-01 20:44:00,
2013-05-01 21:49:00,42.7,31.3,30.23,WSW,248,0.0,0.0,64,0.00,,,0.03,WUHU216HW,2013-05-01 20:49:00,
2013-05-01 21:54:00,41.9,31.0,30.24,WSW,248,0.0,0.0,65,0.00,,,0.03,WUHU216HW,2013-05-01 20:54:00,
2013-05-01 21:59:00,41.8,31.2,30.24,WSW,248,0.2,0.2,66,0.00,,,0.03,WUHU216HW,2013-05-01 20:59:00,
2013-05-01 22:04:00,41.8,31.2,30.24,WSW,248,0.0,0.2,66,0.00,,,0.03,WUHU216HW,2013-05-01 21:04:00,
2013-05-01 22:09:00,41.4,30.9,30.24,WSW,248,0.0,0.2,66,0.00,,,0.03,WUHU216HW,2013-05-01 21:09:00,
2013-05-01 22:14:00,41.4,30.9,30.24,WSW,248,0.0,0.0,66,0.00,,,0.03,WUHU216HW,2013-05-01 21:14:00,
2013-05-01 22:19:00,41.0,30.9,30.24,WSW,248,0.0,0.0,67,0.00,,,0.03,WUHU216HW,2013-05-01 21:19:00,
2013-05-01 22:24:00,40.9,30.7,30.24,WSW,248,0.0,0.0,67,0.00,,,0.03,WUHU216HW,2013-05-01 21:24:00,
2013-05-01 22:29:00,40.7,30.5,30.24,WSW,248,0.0,0.0,67,0.00,,,0.03,WUHU216HW,2013-05-01 21:29:00,
2013-05-01 22:34:00,40.3,30.2,30.24,WSW,248,0.0,0.0,67,0.00,,,0.03,WUHU216HW,2013-05-01 21:34:00,
2013-05-01 22:39:00,40.1,30.0,30.24,WSW,248,0.0,0.0,67,0.00,,,0.03,WUHU216HW,2013-05-01 21:39:00,
2013-05-01 22:44:00,40.0,29.8,30.24,WSW,248,0.0,0.0,67,0.00,,,0.03,WUHU216HW,2013-05-01 21:44:00,
2013-05-01 22:49:00,39.8,30.1,30.24,WSW,248,0.0,0.0,68,0.00,,,0.03,WUHU216HW,2013-05-01 21:49:00,
2013-05-01 22:54:00,39.4,29.7,30.24,WSW,248,0.0,0.0,68,0.00,,,0.03,WUHU216HW,2013-05-01 21:54:00,
2013-05-01 22:59:00,39.2,29.9,30.25,WSW,248,0.0,0.0,69,0.00,,,0.03,WUHU216HW,2013-05-01 21:59:00,
2013-05-01 23:04:00,39.1,29.7,30.24,WSW,248,0.0,0.0,69,0.00,,,0.03,WUHU216HW,2013-05-01 22:04:00,
2013-05-01 23:09:00,38.9,29.5,30.25,WSW,248,0.0,0.0,69,0.00,,,0.03,WUHU216HW,2013-05-01 22:09:00,
2013-05-01 23:14:00,38.9,29.9,30.24,WSW,248,0.0,0.0,70,0.00,,,0.03,WUHU216HW,2013-05-01 22:14:00,
2013-05-01 23:19:00,38.7,29.8,30.25,WSW,248,0.0,0.0,70,0.00,,,0.03,WUHU216HW,2013-05-01 22:19:00,
2013-05-01 23:24:00,37.8,29.3,30.25,WSW,248,0.0,0.0,71,0.00,,,0.03,WUHU216HW,2013-05-01 22:24:00,
2013-05-01 23:29:00,37.4,29.0,30.25,WSW,248,0.0,0.0,71,0.00,,,0.03,WUHU216HW,2013-05-01 22:29:00,
2013-05-01 23:34:00,37.4,29.3,30.25,WSW,248,0.0,0.0,72,0.00,,,0.03,WUHU216HW,2013-05-01 22:34:00,
2013-05-01 23:39:00,37.4,29.0,30.24,WSW,248,0.0,0.0,71,0.00,,,0.03,WUHU216HW,2013-05-01 22:39:00,
2013-05-01 23:44:00,37.6,29.4,30.24,WSW,248,0.0,0.0,72,0.00,,,0.03,WUHU216HW,2013-05-01 22:44:00,
2013-05-01 23:49:00,37.4,29.3,30.25,WSW,248,0.0,0.0,72,0.00,,,0.03,WUHU216HW,2013-05-01 22:49:00,
2013-05-01 23:54:00,37.3,29.1,30.25,WSW,248,0.0,0.0,72,0.00,,,0.03,WUHU216HW,2013-05-01 22:54:00,
2013-05-01 23:59:00,37.1,29.3,30.25,WSW,248,0.0,0.0,73,0.00,,,0.03,WUHU216HW,2013-05-01 22:59:00,